STARLINK-3934 (52675 NORAD) Tracking and Keplerian Element Data

This shows tracking and keplerian element data for the satellite.

Feedback or suggestion? Click here.




ElementValue
Catalog52675
NameSTARLINK-3934
Epoch Orbit894
Epoch Day193.25001157
Epoch Year2022
RAAN27.0996
Inclination53.2174
Eccentricity0.0001596
Argument of Perigee45.3061
Mean Anonmoly138.9074
Mean Motion15.5302651
Decay Rate-0.01062759
L11 52675U 22053V 22193.25001157 -.01062759 00000+0 -18419-1 0 9990
L22 52675 53.2174 27.0996 0001596 45.3061 138.9074 15.53026510 8943

Live tracking and technical data element details for STARLINK-3934 (NORAD 52675). STARLINK-3934 can be tracked NOW for your location showing map with azimuth and elevation plus other details from your city location.

Track the satellite on the map from your city or location and see movement details for azimuth, elevation, latitude, longitude, range, height, and movement on the map or in text.







IsCatalogInMostPopularTable: catalog: 52675, numindb: 6
Update: records affected: 1



GetName: 52675 STARLINK-3934

Hit Count: updated at: Sat, 13 Aug 2022 23:51:29 GMT